Location: Sungai Bunut
(2.6333°N, 113.7333°E)
Time: 08:47:56
(UTC+00:00)

Vanguard 3 - Pass Details

Date: 11 December 2023
Orbit: 508 x 3239 km, 33.3° (Epoch: 21 February)

Event Time Altitude Azimuth Distance (km) Brightness Sun altitude
Rises 06:54:53 0° 219° (SW) 5,862 12.3 44.0°
Reaches altitude 10° 06:58:34 10° 213° (SSW) 5,170 12.2 43.3°
Maximum altitude 07:14:25 49° 143° (SE) 3,755 11.0 40.0°
Drops below altitude 10° 07:32:56 10° 74° (ENE) 6,007 11.2 36.1°
Sets 07:37:32 0° 69° (ENE) 6,841 11.4 35.1°
